OBJECT AA, 43900

Orbit data source: Space-Track

You're viewing an Uncataloged Satellite

Recently launched and/or uncataloged satellites may have evolving metadata. Metadata may include but not limited to: Owner, Maufacturer, Bus, Motor, and Mission.

OBJECT AA, 43900 is a satellite in SSO that was launched on Thu, 27 Dec 2018 UTC via a SOYUZ-2-1A launch vehicle from the Vostochny Cosmodrome (VOSTO). Unknown objects in Earth's orbit typically refer to objects detected orbiting the Earth but have not yet been identified or cataloged. These objects could be anything from previously untracked satellites, spent rocket stages, debris from satellite collisions, or even natural meteoroids temporarily captured by Earth's gravity.

Loading next visibility...
OBJECT AA details
Identifier
43900, 2018-111AA
Orbit
SSO
Last TLE update13 hours ago
Origin
Flag of TBDRoskosmos (TBD)
ManufacturerRoskosmos
MissionSpacecraft
Bus & MotorUnknown
Mass10 kg wet, 10 kg dry
Launch date (UTC)
2018-12-27 (6 years ago)
Launch vehicle
SOYUZ-2-1A
Launch site
Vostochny Cosmodrome (VOSTO)
Object typeUnknown
Shape & HBRBox, 0.3 m
Radar Cross Section0.080 m², Medium (>0.1 m² and < 1m²)

Expand to show TLE details & history

TLE from 13 hours ago
0 OBJECT AA
1 43900U 18111AA  24361.22659249  .00024564  00000-0  49033-3 0  9996
2 43900  97.0465 222.2346 0014621  20.5605 339.6231 15.46712046334623
Epoch: 2024-12-26T05:26Z
Definitive object data (Epoch: 2024-12-26T05:26:17.591Z)
Latitude0.00001°
Longitude45.45228°
Altitude420.162 km
Speed7.664 km/s
True Right ascension14h 48m 56s
True Declination0° 00' 00"
Sunlit
Object was in daylight at TLE epoch
Visualization TLE readout
Latitude-60.7809°
Longitude-146.69775°
Altitude457.021 km
Speed7.633 km/s
Apparent Right ascension04h 35m 22s
Apparent Declination-54° 54' 10"
Sunlit
Object is in daylight
Visualization observer readout
Local Sidereal Time18:16:35
Azimuth140.107° SSE
Elevation-67.469°
Doppler factor1
Orbital elements
Apogee altitude433.212 km
Perigee altitude413.323 km
Semi-major axis6,801.404 km
Eccentricity0.0014621
Inclination97.0465°
RAAN222.2346°
Arg. of periapsis20.5605°
True anomaly339.56466°
Mean anomaly339.6231°
Eccentric anomaly339.59389°
Mean motion3.86941 °/min
BSTAR0.00049033
Orbital period93.04 mins
Loading maneuver chart data...
Loading historical data...
Loading historical data...
Loading historical data...
Loading historical data...
Loading historical data...
Loading historical data...
Loading historical data...

OBJECT AA Visibility forecast

Observer location: undefined°, undefined

Span
Click to sort rows by Start time (UTC) header in descending order
Start Az.
Max El. time (UTC)
Max El. Az.
Max El.
End time (UTC)
End Az.
5 mins2024-12-27 03:44:01.325Z16.413° NNE2024-12-27 03:47:01.325Z153.543° SSE42.077°2024-12-27 03:49:01.325Z184.957° SSW
|